Date String (YYYY-MM-DD hh:mm:ss) UTC,Instrument flags,absolute air pressure of the measurement (hPa),sample flow rate (lpm),inlet stack bypass flow (lpm),air temperature of the measurement (°C),ambient temperature measured by the external sensor (°C),aerosol sample conditioner tube jacket temperature (°C),OPC LED temperature (°C),internal box temperature (°C),relative humidity of the measurement (%),span deviation,mass concentration of particles derived from Lorenz-Mie calculation of OPC scattering (μg/m³),mass concentration of particles derived from Lorenz-Mie calculation of OPC scattering (μg/m³),mass concentration of particles derived from Lorenz-Mie calculation of OPC scattering (μg/m³)
DateTimeUTC,F1_M11,P_M11,Q1_M11,Q2_M11,T1_M11,T2_M11,T3_M11,T4_M11,T5_M11,U1_M11,ZSPAN_M11,X0_M11,X2_M11,X1_M11
2024-03-08 23:00:00,SystemResetWarning,0832.7,5.00,000.00,018.3,017.3,000.0,027.0,020.0,19.4,0000.0,0008.84,0005.35,0005.13
2024-03-08 23:01:00,SystemResetWarning,0832.8,5.01,000.00,018.3,017.3,000.0,027.0,020.0,19.4,0000.0,0008.73,0005.30,0005.08
2024-03-08 23:02:00,SystemResetWarning,0832.7,5.00,000.00,018.2,017.2,000.0,027.0,020.0,19.3,0000.0,0008.52,0005.27,0005.06
2024-03-08 23:03:00,SystemResetWarning,0832.7,4.99,000.00,018.2,017.2,000.0,027.0,020.0,19.2,0000.0,0007.85,0005.25,0005.07
2024-03-08 23:04:00,SystemResetWarning,0832.8,4.99,000.00,018.2,017.2,000.0,027.0,020.0,19.6,0000.0,0007.92,0005.24,0005.08
2024-03-08 23:05:00,SystemResetWarning,0832.8,5.00,000.00,018.2,017.2,000.0,027.0,020.0,19.8,0000.0,0007.38,0005.23,0005.07
2024-03-08 23:06:00,SystemResetWarning,0832.8,5.01,000.00,018.2,017.2,000.0,027.0,020.0,20.0,0000.0,0007.16,0005.18,0005.05
2024-03-08 23:07:00,SystemResetWarning,0832.8,5.01,000.00,018.2,017.2,000.0,027.0,020.0,19.9,0000.0,0007.10,0005.15,0005.03
2024-03-08 23:08:00,SystemResetWarning,0832.8,4.99,000.00,018.2,017.3,000.0,027.0,020.1,19.7,0000.0,0007.03,0005.12,0005.01
2024-03-08 23:09:00,SystemResetWarning,0832.9,5.00,000.00,018.4,018.1,000.0,027.1,020.5,19.5,0000.0,0007.06,0005.13,0005.02
2024-03-08 23:10:00,SystemResetWarning,0833.2,5.00,000.00,018.6,018.8,000.0,027.2,020.9,19.1,0000.0,0007.29,0005.18,0005.05
2024-03-08 23:11:00,SystemResetWarning,0833.3,4.99,000.00,018.7,018.7,000.0,027.1,020.8,18.9,0000.0,0007.33,0005.19,0005.07
2024-03-08 23:12:00,SystemResetWarning,0833.3,4.99,000.00,018.6,018.5,000.0,027.1,020.6,18.9,0000.0,0007.30,0005.17,0005.07
2024-03-08 23:13:00,SystemResetWarning,0833.1,5.00,000.00,018.6,018.3,000.0,027.1,020.4,18.5,0000.0,0007.38,0005.19,0005.06
2024-03-08 23:14:00,SystemResetWarning,0833.3,5.00,000.00,018.6,018.2,000.0,027.1,020.3,18.8,0000.0,0007.35,0005.17,0005.04
2024-03-08 23:15:00,SystemResetWarning,0833.1,5.00,000.00,018.5,018.0,000.0,027.0,020.3,18.8,0000.0,0007.03,0005.15,0005.01
2024-03-08 23:16:00,SystemResetWarning,0833.3,5.00,000.00,018.5,017.9,000.0,027.0,020.2,18.8,0000.0,0006.79,0005.10,0004.99
2024-03-08 23:17:00,SystemResetWarning,0833.3,5.00,000.00,018.5,017.8,000.0,027.0,020.1,19.0,0000.0,0006.70,0005.09,0004.99
2024-03-08 23:18:00,SystemResetWarning,0833.3,4.99,000.00,018.4,017.7,000.0,027.0,020.1,19.2,0000.0,0006.83,0005.13,0005.02
2024-03-08 23:19:00,SystemResetWarning,0833.4,5.00,000.00,018.4,017.6,000.0,027.0,020.0,19.6,0000.0,0006.92,0005.16,0005.04
2024-03-08 23:20:00,SystemResetWarning,0833.1,5.01,000.00,018.3,017.5,000.0,027.0,020.0,19.6,0000.0,0006.95,0005.18,0005.05
2024-03-08 23:21:00,SystemResetWarning,0833.2,5.01,000.00,018.3,017.4,000.0,027.0,020.0,19.3,0000.0,0006.77,0005.16,0005.06
2024-03-08 23:22:00,SystemResetWarning,0833.0,5.01,000.00,018.3,017.4,000.0,027.0,020.0,19.3,0000.0,0006.65,0005.15,0005.05
2024-03-08 23:23:00,SystemResetWarning,0833.2,5.00,000.00,018.3,017.3,000.0,027.0,020.0,19.5,0000.0,0006.74,0005.16,0005.06
2024-03-08 23:24:00,SystemResetWarning,0833.0,5.00,000.00,018.3,017.3,000.0,027.0,020.0,19.7,0000.0,0006.75,0005.19,0005.08
2024-03-08 23:25:00,SystemResetWarning,0833.1,5.00,000.00,018.2,017.2,000.0,027.0,020.0,19.6,0000.0,0006.80,0005.22,0005.11
2024-03-08 23:26:00,SystemResetWarning,0832.8,5.00,000.00,018.2,017.2,000.0,027.0,020.0,19.4,0000.0,0006.78,0005.23,0005.13
2024-03-08 23:27:00,SystemResetWarning,0833.0,5.01,000.00,018.2,017.2,000.0,027.0,020.0,19.3,0000.0,0006.88,0005.26,0005.16
2024-03-08 23:28:00,SystemResetWarning,0832.8,5.01,000.00,018.2,017.2,000.0,027.0,020.0,19.3,0000.0,0007.03,0005.27,0005.16
2024-03-08 23:29:00,SystemResetWarning,0832.9,5.00,000.00,018.2,017.1,000.0,027.0,020.0,19.4,0000.0,0007.16,0005.28,0005.15
2024-03-08 23:30:00,SystemResetWarning,0833.1,5.00,000.00,018.2,017.1,000.0,027.0,020.0,19.7,0000.0,0007.24,0005.26,0005.13
2024-03-08 23:31:00,SystemResetWarning,0833.4,5.00,000.00,018.3,017.9,000.0,027.1,020.4,19.8,0000.0,0007.18,0005.23,0005.11
2024-03-08 23:32:00,SystemResetWarning,0832.9,5.00,000.00,018.6,018.9,000.0,027.2,020.9,19.2,0000.0,0007.24,0005.22,0005.09
2024-03-08 23:33:00,SystemResetWarning,0832.9,5.00,000.00,018.7,019.0,000.0,027.1,021.0,18.7,0000.0,0007.28,0005.23,0005.09
2024-03-08 23:34:00,SystemResetWarning,0833.0,4.99,000.00,018.7,018.8,000.0,027.1,020.8,18.9,0000.0,0007.25,0005.22,0005.08
2024-03-08 23:35:00,SystemResetWarning,0833.1,5.00,000.00,018.7,018.6,000.0,027.1,020.6,19.0,0000.0,0007.22,0005.19,0005.06
2024-03-08 23:36:00,SystemResetWarning,0833.2,5.00,000.00,018.7,018.4,000.0,027.1,020.5,19.2,0000.0,0007.55,0005.14,0005.03
2024-03-08 23:37:00,SystemResetWarning,0833.4,5.00,000.00,018.7,018.2,000.0,027.1,020.4,19.5,0000.0,0007.67,0005.14,0005.01
2024-03-08 23:38:00,SystemResetWarning,0833.5,5.00,000.00,018.6,018.0,000.0,027.1,020.3,19.5,0000.0,0007.67,0005.14,0005.01
2024-03-08 23:39:00,SystemResetWarning,0833.2,5.00,000.00,018.5,017.8,000.0,027.1,020.2,19.6,0000.0,0007.58,0005.12,0005.00
2024-03-08 23:40:00,SystemResetWarning,0833.3,5.00,000.00,018.5,017.7,000.0,027.1,020.1,19.5,0000.0,0007.65,0005.10,0005.00
2024-03-08 23:41:00,SystemResetWarning,0833.4,5.00,000.00,018.5,017.6,000.0,027.1,020.1,19.6,0000.0,0007.65,0005.12,0005.02
2024-03-08 23:42:00,SystemResetWarning,0833.3,4.99,000.00,018.4,017.5,000.0,027.0,020.0,19.8,0000.0,0007.80,0005.14,0005.03
2024-03-08 23:43:00,SystemResetWarning,0833.0,5.00,000.00,018.4,017.4,000.0,027.1,020.0,19.7,0000.0,0007.89,0005.14,0005.04
2024-03-08 23:44:00,SystemResetWarning,0833.0,5.00,000.00,018.3,017.4,000.0,027.1,020.0,19.7,0000.0,0007.87,0005.13,0005.03
2024-03-08 23:45:00,SystemResetWarning,0833.0,5.01,000.00,018.3,017.3,000.0,027.0,020.0,19.8,0000.0,0007.91,0005.15,0005.03
2024-03-08 23:46:00,SystemResetWarning,0832.9,5.01,000.00,018.3,017.3,000.0,027.0,020.0,19.9,0000.0,0007.87,0005.13,0005.03
2024-03-08 23:47:00,SystemResetWarning,0832.9,5.00,000.00,018.3,017.3,000.0,027.0,020.0,20.1,0000.0,0007.52,0005.15,0005.04
2024-03-08 23:48:00,SystemResetWarning,0832.9,5.00,000.00,018.3,017.3,000.0,027.0,020.0,19.9,0000.0,0007.92,0005.16,0005.05
2024-03-08 23:49:00,SystemResetWarning,0832.9,5.00,000.00,018.2,017.3,000.0,027.0,020.0,20.0,0000.0,0007.86,0005.14,0005.04
2024-03-08 23:50:00,SystemResetWarning,0833.0,4.99,000.00,018.2,017.2,000.0,027.0,020.0,19.7,0000.0,0007.90,0005.14,0005.04
2024-03-08 23:51:00,SystemResetWarning,0832.9,5.00,000.00,018.2,017.2,000.0,027.0,020.0,19.4,0000.0,0007.83,0005.15,0005.04
2024-03-08 23:52:00,SystemResetWarning,0832.9,5.01,000.00,018.2,017.2,000.0,027.0,020.0,19.2,0000.0,0007.73,0005.15,0005.04
2024-03-08 23:53:00,SystemResetWarning,0833.0,5.01,000.00,018.2,017.2,000.0,027.0,020.0,19.3,0000.0,0007.70,0005.18,0005.06
2024-03-08 23:54:00,SystemResetWarning,0833.0,4.99,000.00,018.2,017.2,000.0,027.0,020.0,19.4,0000.0,0007.56,0005.20,0005.08
2024-03-08 23:55:00,SystemResetWarning,0832.9,4.99,000.00,018.2,017.1,000.0,027.0,020.0,19.4,0000.0,0007.56,0005.22,0005.11
2024-03-08 23:56:00,SystemResetWarning,0832.9,5.01,000.00,018.2,017.1,000.0,027.0,020.0,19.3,0000.0,0007.52,0005.23,0005.14
2024-03-08 23:57:00,SystemResetWarning,0832.9,5.01,000.00,018.2,017.6,000.0,027.1,020.3,19.1,0000.0,0007.54,0005.26,0005.16
2024-03-08 23:58:00,SystemResetWarning,0833.1,4.98,000.00,018.5,018.6,000.0,027.1,020.8,18.9,0000.0,0007.65,0005.31,0005.18
2024-03-08 23:59:00,SystemResetWarning,0833.1,4.99,000.00,018.7,018.9,000.0,027.1,020.9,18.7,0000.0,0008.01,0005.35,0005.20
